Change the Weather History Date:

Tuesday, September 3, 2013

  Actual Average (KHVN) Record (KHVN)
Temperature  
Mean Temperature 70 °F -  
Max Temperature 78 °F 75 °F 93 °F (1990)
Min Temperature 63 °F 60 °F 33 °F (1998)
Cooling Degree Days 6    
Growing Degree Days 20 (Base 50)    
Moisture  
Dew Point 66 °F    
Average Humidity 85    
Maximum Humidity 100    
Minimum Humidity 64    
Precipitation  
Precipitation 0.00 in - - ()
Sea Level Pressure  
Sea Level Pressure 29.76 in    
Wind  
Wind Speed 2 mph (NW)    
Max Wind Speed 7 mph    
Max Gust Speed -    
Visibility 8 miles    
Events Rain    
Averages and records for this station are not official NWS values.
T = Trace of Precipitation, MM = Missing Value Source: NWS Daily Summary

Daily Weather History Graph

Daily Weather History Graph

Search for Another Location

Airport or City:

Trip Planner

Search our weather history database for the weather conditions in past years. The results will help you decide how hot, cold, wet, or windy it might be!

Date:

Astronomy

Sep. 03, 2013 Rise Set
Actual Time 6:19 AM EDT 7:20 PM EDT
Civil Twilight 5:51 AM EDT 7:48 PM EDT
Nautical Twilight 5:17 AM EDT 8:22 PM EDT
Astronomical Twilight 4:42 AM EDT 8:57 PM EDT
Moon 4:30 AM EDT (9/3) 6:06 PM EDT (9/3)
Length of Visible Light 13h 57m
Length of Day
13h 01m
Waning Crescent, 3% of the Moon is Illuminated
Sep 3
Waning Crescent
Sep 5
New
Sep 12
First Quarter
Sep 19
Full
Sep 26
Last Quarter

Hourly Weather History & Observations

Time (EDT) Temp. Dew Point Humidity Pressure Visibility Wind Dir Wind Speed Gust Speed Precip Events Conditions
12:08 AM 71.6 °F 69.8 °F 94% 29.77 in 6.0 mi NNW 3.5 mph - N/A   Mostly Cloudy
12:28 AM 71.6 °F 69.8 °F 94% 29.78 in 7.0 mi Calm Calm - N/A   Overcast
12:53 AM 71.1 °F 68.0 °F 90% 29.76 in 8.0 mi Calm Calm - N/A   Mostly Cloudy
1:53 AM 70.0 °F 68.0 °F 93% 29.73 in 5.0 mi SSW 3.5 mph - N/A   Partly Cloudy
2:11 AM 69.8 °F 68.0 °F 94% 29.73 in 4.0 mi SE 3.5 mph - N/A   Scattered Clouds
2:20 AM 69.8 °F 69.8 °F 100% 29.72 in 3.0 mi SSE 6.9 mph - N/A   Mostly Cloudy
2:29 AM 71.6 °F 69.8 °F 94% 29.71 in 1.8 mi SSE 6.9 mph - 0.00 in Rain Light Rain
2:50 AM 71.6 °F 69.8 °F 94% 29.72 in 3.0 mi NNW 6.9 mph - 0.00 in   Overcast
2:53 AM 71.1 °F 69.1 °F 93% 29.72 in 5.0 mi Calm Calm - 0.00 in   Overcast
3:06 AM 71.6 °F 69.8 °F 94% 29.72 in 6.0 mi Calm Calm - 0.00 in Rain Light Rain
3:18 AM 69.8 °F 68.0 °F 94% 29.72 in 7.0 mi Calm Calm - 0.00 in Rain Light Rain
3:46 AM 71.6 °F 69.8 °F 94% 29.71 in 5.0 mi Calm Calm - 0.00 in   Overcast
3:53 AM 71.1 °F 69.1 °F 93% 29.71 in 5.0 mi Calm Calm - 0.00 in   Overcast
4:31 AM 71.6 °F 69.8 °F 94% 29.73 in 6.0 mi Calm Calm - N/A   Overcast
4:53 AM 71.1 °F 68.0 °F 90% 29.73 in 9.0 mi NW 3.5 mph - N/A   Overcast
5:12 AM 69.8 °F 66.2 °F 88% 29.73 in 10.0 mi NW 3.5 mph - N/A   Overcast
5:53 AM 70.0 °F 68.0 °F 93% 29.75 in 7.0 mi Calm Calm - N/A   Overcast
6:02 AM 69.8 °F 66.2 °F 88% 29.75 in 8.0 mi Calm Calm - N/A   Overcast
6:53 AM 70.0 °F 68.0 °F 93% 29.76 in 6.0 mi Calm Calm - N/A   Overcast
7:53 AM 70.0 °F 66.9 °F 90% 29.77 in 10.0 mi Calm Calm - N/A   Overcast
8:20 AM 71.6 °F 68.0 °F 88% 29.78 in 10.0 mi Calm Calm - N/A   Overcast
8:32 AM 71.6 °F 66.2 °F 83% 29.78 in 10.0 mi NW 4.6 mph - N/A   Overcast
8:45 AM 71.6 °F 66.2 °F 83% 29.78 in 10.0 mi Calm Calm - N/A   Overcast
8:53 AM 71.1 °F 66.0 °F 84% 29.78 in 10.0 mi Calm Calm - N/A   Overcast
9:44 AM 71.6 °F 66.2 °F 83% 29.80 in 10.0 mi Calm Calm - N/A   Overcast
9:53 AM 71.1 °F 66.9 °F 87% 29.79 in 10.0 mi Calm Calm - N/A   Overcast
10:53 AM 73.9 °F 68.0 °F 82% 29.78 in 10.0 mi Calm Calm - 0.00 in   Overcast
11:05 AM 73.4 °F 66.2 °F 78% 29.78 in 10.0 mi Calm Calm - N/A   Overcast
11:18 AM 75.2 °F 68.0 °F 78% 29.77 in 10.0 mi Calm Calm - N/A   Overcast
11:53 AM 77.0 °F 66.9 °F 71% 29.76 in 10.0 mi Calm Calm - N/A   Scattered Clouds
12:17 PM 75.2 °F 66.2 °F 73% 29.77 in 10.0 mi ESE 3.5 mph - N/A   Overcast
12:53 PM 75.0 °F 66.0 °F 73% 29.76 in 10.0 mi Calm Calm - N/A   Overcast
1:53 PM 73.9 °F 68.0 °F 82% 29.76 in 10.0 mi NNW 3.5 mph - 0.00 in   Overcast
2:53 PM 72.0 °F 63.0 °F 73% 29.76 in 10.0 mi NNW 6.9 mph - 0.00 in   Overcast
3:53 PM 72.0 °F 62.1 °F 71% 29.77 in 10.0 mi NNW 6.9 mph - N/A   Overcast
4:28 PM 75.2 °F 62.6 °F 65% 29.77 in 10.0 mi NW 3.5 mph - N/A   Scattered Clouds
4:53 PM 75.9 °F 64.0 °F 67% 29.77 in 10.0 mi Variable 4.6 mph - N/A   Partly Cloudy
5:53 PM 75.0 °F 62.1 °F 64% 29.77 in 10.0 mi WNW 3.5 mph - N/A   Partly Cloudy
6:53 PM 71.1 °F 64.0 °F 78% 29.78 in 10.0 mi Calm Calm - N/A   Clear
7:53 PM 68.0 °F 64.0 °F 87% 29.81 in 10.0 mi Calm Calm - N/A   Overcast
8:53 PM 68.0 °F 63.0 °F 84% 29.83 in 10.0 mi NW 6.9 mph - N/A   Overcast
9:53 PM 64.9 °F 61.0 °F 87% 29.85 in 10.0 mi NW 3.5 mph - N/A   Clear
10:53 PM 66.0 °F 57.0 °F 73% 29.86 in 10.0 mi NW 6.9 mph - N/A   Clear
11:53 PM 63.0 °F 57.9 °F 84% 29.87 in 10.0 mi WNW 3.5 mph - N/A   Clear